www.pogodaiklimat.ru

Погода и климат >> Архив погоды >> Гондурас >> Роатан


ПОГОДА на Роатане

  • Прогноз погоды на Роатане
  • Монитор погоды на Роатане

АРХИВ ПОГОДЫ на Роатане

Время (UTC), дата Ветер
(напр.,м/с)
 
Видим.   Явления Облачность Т
(С)
Тd
(С)
f
(%)
Тe
(С)
Тes
(С)
Комфортность P
(гПа)
Po
(гПа)
Тmin
(С)
Tmax
(С)
R
(мм)
R24
(мм)
S
(см)
18 18.08 В 8 20 км мгла {туман} 9/9
[Cu med, cong Ac As Cs]
+31.6 +27.9 81 +40 +43 очень
душно
1012.7 1012.5 +27.9 +31.6
21 18.08 В 8 20 км мгла {туман} 8/0
[Ac trans Ci fib]
+30.9 +23.8 66 +42 +43 опасность
перегрева
1010.6 1010.4
00 19.08 В 9 20 км мгла {туман} 3/1 720 м
[Cu hum Ac trans Ci fib]
+28.9 +24.6 78 +41 +41 опасность
перегрева
1010.9 1010.7 +27.9 +33.0
12 19.08 В 9 20 км мгла 6/1 600 м
[Cu med, cong Ac trans Ci fib]
+28.0 +24.9 83 +40 +40 очень
душно
1010.7 1010.5 +28.0 +33.0
15 19.08 В 10 20 км мгла {туман} 4/1 660 м
[Cu med, cong Ac trans Ci fib]
+29.9 +23.3 68 +40 +41 очень
душно
1012.9 1012.7
18 19.08 В 7 10 км мгла {туман} 9/1 660 м
[Cu hum Ac und Ci fib]
+30.1 +23.6 68 +41 +44 опасность
перегрева
1012.2 1012.0 +28.0 +30.1
21 19.08 В 11 10 км мгла {туман} 9/3 720 м
[Cu med, cong Ac As Ci sp]
+28.7 +22.8 70 +38 +38 очень
душно
1010.5 1010.3
00 20.08 В 10 20 км мгла {туман} 9/1 720 м
[Cu hum Ac und Ci]
+28.1 +20.6 64 +35 +35 очень
душно
1010.2 1010.0 +28.0 +33.0
12 20.08 В 7 20 км мгла 9/5 600 м
[Cu hum Ac trans Ci fib]
+27.8 +24.4 82 +39 +39 очень
душно
1012.0 1011.8 +27.3 +33.0
15 20.08 20 км ясно +29.6 1014.4 1012.2
18 20.08 В 6 20 км мгла {туман} 6/1 720 м
[Cu hum Ac trans Cs]
+30.7 +25.2 73 +45 +50 опасность
перегрева
1013.3 1013.1 +27.3 +30.7
21 20.08 В 6 10 км мгла {туман} 9/3 660 м
[Cb cap Ac trans Cs]
+30.6 +25.7 75 +45 +47 опасность
перегрева
1010.8 1010.6
00 21.08 В 8 15 км осадки на расстоянии {туман} 9/6 540 м
[Cb cap Ac cuf Ci ing]
+28.5 +27.1 92 +45 +45 опасность
перегрева
1011.7 1011.5 +27.3 +33.1
15 21.08 В 5 20 км мгла {туман} 6/1 720 м
[Cu hum Cs]
+30.3 +25.6 76 +45 +50 опасность
перегрева
1014.6 1014.4
18 21.08 В 6 20 км мгла {туман} 8/1 720 м
[Cb calv As trans Ci ing]
+30.9 +25.4 73 +45 +50 опасность
перегрева
1013.7 1013.5 +27.4 +30.9
21 21.08 В 10 20 км мгла {туман} 9/1 720 м
[Cu hum Cs]
+31.1 +25.6 73 +46 +46 опасность
перегрева
1011.5 1011.3
00 22.08 В 10 20 км мгла {туман} 9/1 720 м
[Cu med, cong Cs]
+29.6 +25.7 80 +44 +44 опасность
перегрева
1010.7 1010.5 +27.4 +33.4
12 22.08 С 3 20 км мгла 8/1 720 м
[Cb cap Ac trans Cs]
+28.4 +26.3 88 +43 +43 опасность
перегрева
1013.4 1013.2 +28.4 +33.4
15 22.08 В 8 20 км мгла {туман} 6/1 660 м
[Cu hum Ac trans Cc]
+29.6 +25.7 80 +44 +45 опасность
перегрева
1014.7 1014.5
18 22.08 В 8 10 км мгла {туман} 5/1 720 м
[Cu hum Ac trans Cc]
+31.4 +25.3 70 +45 +48 опасность
перегрева
1013.2 1013.0 +28.4 +31.5
21 22.08 В 9 20 км мгла {туман} 3/1 720 м
[Cu hum Ci fib]
+31.4 +25.1 69 +45 +46 опасность
перегрева
1011.2 1011.0
00 23.08 В 9 20 км мгла {туман} 3/0
[Ci fib]
+29.6 +25.3 78 +43 +43 опасность
перегрева
1010.9 1010.7 +28.4 +33.2
12 23.08 В 8 15 км мгла 1/0
[Ac trans]
+28.3 +25.1 83 +41 +41 опасность
перегрева
1013.1 1012.9 +28.3 +32.2
15 23.08 В 7 20 км мгла {туман} ясно +30.6 +24.4 70 +43 +46 опасность
перегрева
1013.8 1013.6
18 23.08 В 5 20 км мгла {туман} 1/0
[Ac trans]
+31.5 +23.3 62 +42 +53 опасность
перегрева
1012.9 1012.7 +28.3 +31.5
21 23.08 В 7 20 км мгла {туман} 1/1 750 м
[Cu hum Ci fib]
+32.3 +22.8 57 +42 +44 опасность
перегрева
1011.4 1011.2
00 24.08 В 6 20 км мгла {туман} 1/1 720 м
[Cu hum Ci fib]
+30.1 +23.7 69 +41 +41 опасность
перегрева
1011.4 1011.2 +28.3 +34.5
12 24.08 В 8 10 км мгла 1/1 600 м
[Cu hum Ci fib]
+28.3 +25.5 85 +42 +42 опасность
перегрева
1012.0 1011.8 +28.3 +34.5
15 24.08 В 6 10 км мгла {туман} 1/1 600 м
[Cu Sc As op Ci sp]
+30.6 +25.3 73 +44 +49 опасность
перегрева
1013.8 1013.6
18 24.08 В 7 10 км мгла {туман} 1/1 720 м
[Cu med, cong Ci fib]
+31.6 +24.5 66 +44 +49 опасность
перегрева
1013.2 1013.0 +28.3 +31.6
21 24.08 В 8 10 км мгла {туман} 1/1 600 м
[Cu Sc As op Ci]
+33.4 +23.0 55 +44 +45 опасность
перегрева
1010.8 1010.6
00 25.08 СВ 4 10 км {туман} 1/1 600 м
[Cb cap As op Ci]
+30.1 +25.1 75 +44 +44 опасность
перегрева
1011.1 1010.9 +28.3 +34.5
06 25.08 В 11 14 км мгла {туман} 3/0
[Ci fib]
+28.3 +24.2 78 +39 +39 очень
душно
1013.5 1013.3 +27.2 +32.7
12 25.08 В 7 20 км 3/1
[Cb calv Ac und Cc]
+28.4 +25.6 85 +42 +42 опасность
перегрева
1011.3 1011.1 +28.4 +34.5
15 25.08 В 8 10 км мгла {туман} 1/1 600 м
[Cu hum Ci fib]
+30.8 +25.0 71 +44 +46 опасность
перегрева
1012.9 1012.7

 

Местоположение метеостанции Роатан (Гондурас): широта 16.32 долгота -86.51 высота над уровнем моря 2 м.

В архиве по умолчанию представлена погода на Роатане за последнюю неделю. Архивные данные за месяц целиком и за предыдущие месяцы, начиная с января 2011 года, Вы можете получить, выбрав интересующий диапазон дат из раскрывающегося списка и нажав кнопку "Ввод!".


*Определитесь, кто Вы:
робот инопланетянин человек

Внимание! Время в таблицах - всемирное. Для получения местного времени необходимо прибавить поправку, которая равна -6 ч.

Смотрите также архив погоды в соседних городах и на ближайших метеорологических станциях:

Погода в Ла-Сейбе (Гондурас) (76 км)
Погода в Трухильо (Гондурас) (76 км)
Погода в Теле (Гондурас) (123 км)
Погода в Йоро (Гондурас) (143 км)
Погода в Катакамасе (Гондурас) (170 км)
Погода в Ла-Лиме (Гондурас) (180 км)
Погода в Пуэрто-Барриосе (Гватемала) (233 км)
Погода в Белизе (Белиз) (233 км)
Погода в Тегусигальпе (Гондурас) (263 км)
Погода в Ла-Эсперансе (Гондурас) (284 км)

Пояснения к столбцам:

Ветер - указаны скорость ветра в м/с - средняя за 10 мин, порывы в срок и между сроками (в фигурных скобках) и направление, откуда дует ветер: С - северный, СВ - северо-восточный, В - восточный, ЮВ - юго-восточный, Ю - южный, ЮЗ - юго-западный, З - западный, СЗ - северо-западный.
Видимость - горизонтальная дальность видимости в метрах или километрах. При видимости от 1 до 10 км при отсутствии осадков обычно наблюдается дымка, при ухудшении видимости до 1 км и менее - туман. В сухую погоду видимость может ухудшаться дымом, пылью или мглою.
Явления - указаны атмосферные явления, наблюдавшиеся в срок или в последний час перед сроком; фигурными скобками обозначены явления, наблюдавшиеся между сроками (за 1-3 часа до срока); квадратными скобками обозначены град или гололедные отложения с указанием их диаметра в мм.
Облачность - указаны через наклонную черту общая и нижняя облачность в баллах и высота нижней границы облаков в метрах; квадратными скобками обозначены формы облаков: Ci - перистые, Cs - перисто-слоистые, Cc - перисто-кучевые, Ac - высококучевые, As - высокослоистые, Sc - слоисто-кучевые, Ns - слоисто-дождевые, Cu - кучевые, Cb - кучево-дождевые. Подробнее классификацию облаков см. в Атласе облаков (PDF).
T - Температура воздуха - температура, измеренная на высоте 2 м над землей.
Td - Температура точки росы - температура, при понижении до которой содержащийся в воздухе водяной пар достигнет насыщения.
f - Относительная влажность воздуха - влажноcть воздуха, измеренная на высоте 2 м над землей.
Te - Эффективная температура - температура, которую ощущает одетый по сезону человек в тени. Характеристика душности погоды. При расчете учитывается влияние влажности воздуха и скорости ветра на теплоощущения человека.
Tes - Эффективная температура на солнце - температура, которую ощущает человек, с поправкой на солнечный нагрев. Характеристика знойности погоды. Зависит от высоты солнца над горизонтом, облачности и скорости ветра. Ночью, в пасмурную погоду, а также при ветре 12 м/с и более поправка равна нулю.
P - Атмосферное давление - приведенное к уровню моря атмосферное давление.
Po - Атмосферное давление - измеренное на уровне метеостанции атмосферное давление.
Tmin - Минимальная температура - минимум температуры воздуха на высоте 2 м над землей.
Tmax - Максимальная температура - максимум температуры воздуха на высоте 2 м над землей.
R - Количество осадков - Количество выпавших осадков за период времени, мм. При наведении курсора мыши на число - период времени, за который выпало указанное количество осадков.
R24 - Количество осадков - Количество выпавших осадков за 24 часа, мм.
S - Снежный покров - Высота снежного покрова, см. При наведении курсора мыши на число - состояние снежного покрова и степень покрытия местности в баллах.